Location: Peterborough
(44.3091°N, 78.3197°W)
Time: 04:42:48
(UTC-04:00)

Tiros 1 - Pass Details

Date: 02 April 2023
Orbit: 627 x 661 km, 48.4° (Epoch: 09 June)

Event Time Altitude Azimuth Distance (km) Brightness Sun altitude
Rises 07:45:45 0° 290° (WNW) 2,991 10.0 8.6°
Reaches altitude 10° 07:48:07 10° 293° (WNW) 2,078 9.2 9.0°
Maximum altitude 07:52:55 71° 18° (NNE) 701 7.6 9.9°
Drops below altitude 10° 07:57:41 10° 102° (ESE) 2,069 12.4 10.7°
Sets 08:00:02 0° 105° (ESE) 2,977 12.5 11.2°
